Weather History for KRCA - February, 2014

Change the Weather History Date:

Tuesday, February 25, 2014

  Actual Average Record
Temperature  
Mean Temperature 8 °F -  
Max Temperature 14 °F 35 °F 71 °F (1999)
Min Temperature 1 °F 16 °F -9 °F (2003)
Degree Days  
Heating Degree Days 58    
Moisture  
Dew Point -1 °F    
Average Humidity 72    
Maximum Humidity 79    
Minimum Humidity 53    
Precipitation  
Precipitation 0.00 in - - ()
Sea Level Pressure  
Sea Level Pressure 30.42 in    
Wind  
Wind Speed 7 mph (NNW)    
Max Wind Speed 30 mph    
Max Gust Speed 38 mph    
Visibility 9 miles    
Events Snow    
Averages and records for this station are not official NWS values.
T = Trace of Precipitation, MM = Missing Value Source: NWS Daily Summary

Daily Weather History Graph

Daily Weather History Graph

Search for Another Location

Airport or City:

Trip Planner

Search our weather history database for the weather conditions in past years. The results will help you decide how hot, cold, wet, or windy it might be!

Date:

Astronomy

Feb. 25, 2014 Rise Set
Actual Time 6:36 AM MST 5:35 PM MST
Civil Twilight 6:06 AM MST 6:04 PM MST
Nautical Twilight 5:33 AM MST 6:38 PM MST
Astronomical Twilight 4:59 AM MST 7:11 PM MST
Moon 3:39 AM MST (2/25) 1:38 PM MST (2/25)
Length of Visible Light 11h 57m
Length of Day
10h 59m
Waning Crescent, 17% of the Moon is Illuminated
Feb 25
Waning Crescent
Mar 1
New
Mar 8
First Quarter
Mar 16
Full
Mar 23
Last Quarter

Hourly Weather History & Observations

Time (MST) Temp. Windchill Dew Point Humidity Pressure Visibility Wind Dir Wind Speed Gust Speed Precip Events Conditions
12:58 AM 1.4 °F -6.2 °F -4.0 °F 78% 30.50 in 10.0 mi SSW 3.5 mph - N/A   Overcast
1:58 AM 3.0 °F -4.4 °F -4.2 °F 72% 30.50 in 10.0 mi NE 3.5 mph - N/A   Overcast
2:58 AM 3.7 °F -7.1 °F -2.9 °F 74% 30.46 in 10.0 mi SSE 5.8 mph - N/A   Overcast
3:32 AM 3.2 °F -4.2 °F -2.2 °F 78% 30.23 in 10.0 mi South 3.5 mph - N/A Snow Light Snow
3:58 AM 3.7 °F -3.6 °F -2.2 °F 76% 30.47 in 10.0 mi South 3.5 mph - 0.00 in Snow Light Snow
4:14 AM 3.2 °F -4.2 °F -2.2 °F 78% 30.23 in 10.0 mi South 3.5 mph - N/A   Overcast
4:24 AM 3.2 °F - -2.2 °F 78% 30.23 in 10.0 mi South 2.3 mph - N/A Snow Light Snow
4:58 AM 4.1 °F - -2.2 °F 75% 30.46 in 6.0 mi Calm Calm - 0.00 in Snow Light Snow
5:46 AM 5.0 °F - -2.2 °F 72% 30.24 in 10.0 mi Calm Calm - N/A   Overcast
5:58 AM 4.6 °F - -1.7 °F 75% 30.49 in 10.0 mi NE 2.3 mph - 0.00 in Snow Light Snow
6:04 AM 5.0 °F - -2.2 °F 72% 30.25 in 10.0 mi Calm Calm - N/A   Overcast
6:57 AM 5.0 °F -2.1 °F -2.2 °F 72% 30.27 in 5.0 mi North 3.5 mph - N/A Snow Light Snow
6:58 AM 5.2 °F - -1.3 °F 75% 30.51 in 5.0 mi North 2.3 mph - 0.00 in Snow Light Snow
7:25 AM 5.0 °F - -0.4 °F 78% 30.28 in 10.0 mi NNW 2.3 mph - N/A   Overcast
7:29 AM 5.0 °F - -2.2 °F 72% 30.28 in 9.0 mi Calm Calm - N/A Snow Light Snow
7:58 AM 5.7 °F -1.3 °F -0.2 °F 77% 30.52 in 5.0 mi NW 3.5 mph - 0.00 in Snow Light Snow
8:14 AM 5.0 °F - -0.4 °F 78% 30.29 in 5.0 mi NNW 2.3 mph - N/A Snow Light Snow
8:22 AM 5.0 °F - -0.4 °F 78% 30.29 in 9.0 mi West 2.3 mph - N/A   Mostly Cloudy
8:32 AM 6.8 °F - -0.4 °F 72% 30.29 in 10.0 mi Calm Calm - N/A   Overcast
8:58 AM 6.8 °F -0.1 °F 0.1 °F 74% 30.54 in 10.0 mi North 3.5 mph - 0.00 in   Mostly Cloudy
9:48 AM 8.6 °F -6.3 °F 1.4 °F 73% 30.33 in 10.0 mi North 11.5 mph - N/A   Overcast
9:58 AM 8.8 °F -5.3 °F 2.1 °F 74% 30.57 in 10.0 mi North 10.4 mph - N/A   Overcast
10:37 AM 8.6 °F -6.3 °F 3.2 °F 79% 30.34 in 5.0 mi North 11.5 mph - N/A   Light Freezing Rain
10:41 AM 8.6 °F -7.7 °F 3.2 °F 79% 30.34 in 4.0 mi North 13.8 mph - N/A   Light Freezing Rain
10:47 AM 8.6 °F -8.3 °F 3.2 °F 79% 30.34 in 5.0 mi North 15.0 mph - N/A   Haze
10:49 AM 8.6 °F -8.3 °F 3.2 °F 79% 30.34 in 5.0 mi North 15.0 mph - N/A Snow Light Snow
10:50 AM 8.6 °F -7.7 °F 3.2 °F 79% 30.34 in 5.0 mi North 13.8 mph - N/A   Haze
10:58 AM 9.1 °F -7.0 °F 2.8 °F 76% 30.59 in 9.0 mi North 13.8 mph - 0.00 in   Mostly Cloudy
11:58 AM 12.0 °F -6.0 °F 0.5 °F 60% 30.56 in 10.0 mi North 19.6 mph 26.5 mph N/A   Partly Cloudy
12:58 PM 12.9 °F -5.7 °F -1.1 °F 54% 30.56 in 10.0 mi North 21.9 mph 27.6 mph N/A   Clear
1:58 PM 12.9 °F -7.3 °F 1.0 °F 59% 30.52 in 10.0 mi North 26.5 mph 32.2 mph N/A   Clear
2:40 PM 14.0 °F -6.8 °F -0.4 °F 53% 30.30 in 6.0 mi North 29.9 mph 38.0 mph N/A   Light Freezing Rain
2:41 PM 14.0 °F -6.5 °F -0.4 °F 53% 30.29 in 10.0 mi North 28.8 mph 38.0 mph N/A   Clear
2:58 PM 13.3 °F -7.1 °F -0.8 °F 54% 30.52 in 10.0 mi NNW 27.6 mph 36.8 mph 0.00 in   Clear
3:58 PM 11.7 °F -8.6 °F -0.4 °F 58% 30.53 in 10.0 mi North 25.3 mph 32.2 mph N/A   Clear
4:58 PM 10.0 °F -9.1 °F -0.6 °F 62% 30.56 in 10.0 mi North 20.7 mph 29.9 mph N/A   Clear
5:58 PM 7.0 °F -11.0 °F -1.7 °F 68% 30.57 in 10.0 mi North 16.1 mph - N/A   Clear
6:58 PM 5.7 °F -12.6 °F -2.7 °F 68% 30.59 in 10.0 mi North 16.1 mph - N/A   Clear
7:58 PM 3.6 °F -9.8 °F -5.1 °F 67% 30.58 in 10.0 mi WNW 8.1 mph - N/A   Clear
8:58 PM 2.5 °F -7.0 °F -5.4 °F 70% 30.55 in 10.0 mi NW 4.6 mph - N/A   Clear
9:58 PM 2.5 °F -11.1 °F -4.0 °F 74% 30.51 in 10.0 mi South 8.1 mph - N/A   Clear
10:58 PM 3.9 °F -8.2 °F -1.7 °F 78% 30.47 in 10.0 mi SSW 6.9 mph - N/A   Clear
11:58 PM 3.7 °F -8.4 °F -1.8 °F 78% 30.42 in 10.0 mi SSW 6.9 mph - N/A   Clear